DEJRM EDLH-ZZZZ

Flight info

Callsign DEJRM
Flight time N/A
Altitude
Route
Aircraft SF52

Departure

Time 2026-05-04 07:27
Airport Hamm-Lippewiesen Airfield (EDLH)

Arrival

Time N/A
Airport ZZZZ
Time Latitude Longitude Altitude Speed Heading
2026-05-04 07:26 51.62881 7.64285 1352 ft 102 kts 203°
2026-05-04 07:27 51.62227 7.63833 1348 ft 103 kts 202°
2026-05-04 07:27 51.61576 7.63380 1346 ft 103 kts 202°
2026-05-04 07:27 51.60894 7.62951 1329 ft 104 kts 200°
2026-05-04 07:27 51.60218 7.62558 1333 ft 104 kts 197°
2026-05-04 07:28 51.59518 7.62219 1314 ft 105 kts 196°
2026-05-04 07:28 51.58810 7.61956 1262 ft 106 kts 189°
2026-05-04 07:28 51.58096 7.61642 1223 ft 105 kts 197°
2026-05-04 07:28 51.57391 7.61442 1200 ft 102 kts 182°
2026-05-04 07:29 51.56688 7.61389 1160 ft 101 kts 177°
2026-05-04 07:29 51.56064 7.61799 1128 ft 100 kts 138°
2026-05-04 07:29 51.55609 7.62650 1121 ft 94 kts 133°
2026-05-04 07:29 51.55150 7.63298 1028 ft 82 kts 152°
2026-05-04 07:30 51.54644 7.63646 923 ft 78 kts 162°
2026-05-04 07:30 51.54125 7.63894 860 ft 78 kts 165°
2026-05-04 07:30 51.53594 7.64053 823 ft 75 kts 173°
2026-05-04 07:30 51.53079 7.64038 736 ft 72 kts 193°
2026-05-04 07:31 51.52683 7.63612 572 ft 72 kts 230°
2026-05-04 07:31 51.52427 7.62901 465 ft 74 kts 237°
2026-05-04 07:33 51.52775 7.57816 1490 ft 123 kts 355°
2026-05-04 07:33 51.53663 7.57714 1515 ft 132 kts 355°
2026-05-04 07:33 51.54609 7.57602 1534 ft 140 kts 355°
2026-05-04 07:33 51.55587 7.57288 1543 ft 144 kts 336°
2026-05-04 07:34 51.56451 7.56458 1553 ft 147 kts 324°
2026-05-04 07:34 51.57304 7.55516 1537 ft 150 kts 325°
2026-05-04 07:34 51.58189 7.54726 1737 ft 135 kts 351°
2026-05-04 07:34 51.59029 7.55142 1977 ft 132 kts 40°
2026-05-04 07:35 51.59610 7.56302 2089 ft 139 kts 60°
2026-05-04 07:35 51.60001 7.57775 2117 ft 144 kts 72°
2026-05-04 07:35 51.60377 7.59289 2109 ft 148 kts 62°
2026-05-04 07:35 51.60990 7.60627 2122 ft 150 kts 48°
2026-05-04 07:36 51.61727 7.61807 2112 ft 152 kts 43°
2026-05-04 07:36 51.62507 7.62958 2121 ft 150 kts 45°
2026-05-04 07:38 51.65983 7.73019 1484 ft 144 kts 57°
2026-05-04 07:38 51.66568 7.74345 1327 ft 142 kts 56°
2026-05-04 07:38 51.67101 7.75547 1215 ft 119 kts 57°
2026-05-04 07:38 51.67510 7.76535 1043 ft 96 kts 64°
2026-05-04 07:39 51.67751 7.77454 888 ft 88 kts 72°
2026-05-04 07:39 51.67955 7.78373 777 ft 87 kts 74°
2026-05-04 07:39 51.68121 7.79305 628 ft 86 kts 70°
2026-05-04 07:39 51.68414 7.80116 421 ft 82 kts 58°
2026-05-04 07:40 51.68702 7.80898 285 ft 82 kts 58°
2026-05-04 07:40 51.68978 7.81646 196 ft 66 kts 57°
2026-05-04 07:40 51.69145 7.82098 188 ft 29 kts 63°
2026-05-04 07:40 51.69220 7.82298 186 ft 11 kts 16°
2026-05-04 07:41 51.69215 7.82207 187 ft 14 kts 239°
2026-05-04 07:41 51.69170 7.82073 188 ft 12 kts 240°
2026-05-04 07:41 51.69129 7.81947 189 ft 13 kts 240°
2026-05-04 07:41 51.69079 7.81790 190 ft 17 kts 243°
2026-05-04 07:42 51.69033 7.81649 195 ft 13 kts 242°
2026-05-04 07:42 51.68996 7.81535 196 ft 10 kts 243°
2026-05-04 07:42 51.68964 7.81435 196 ft 9 kts 241°
2026-05-04 07:42 51.68964 7.81397 195 ft 6 kts 341°
2026-05-04 07:43 51.69004 7.81379 197 ft 4 kts 240°
2026-05-04 07:43 51.68995 7.81415 197 ft 4 kts 56°
2026-05-04 07:43 51.69000 7.81427 197 ft 0 kts 60°